George, South Africa

12:22 PM SAST on August 29, 2016 (GMT +0200)
George

Weather History for FAGG - November, 2011

Change the Weather History Date:

Wednesday, November 16, 2011

  Actual Average Record
Temperature  
Mean Temperature 59 °F -  
Max Temperature 69 °F 71 °F 82 °F (1999)
Min Temperature 49 °F 55 °F 32 °F (2004)
Degree Days  
Heating Degree Days 6    
Growing Degree Days 9 (Base 50)    
Moisture  
Dew Point 54 °F    
Average Humidity 79    
Maximum Humidity 100    
Minimum Humidity 55    
Precipitation  
Precipitation 0.00 in - - ()
Sea Level Pressure  
Sea Level Pressure 30.02 in    
Wind  
Wind Speed 5 mph ()    
Max Wind Speed 14 mph    
Max Gust Speed -    
Visibility 7.9 miles    
Events      
Averages and records for this station are not official NWS values.
T = Trace of Precipitation, MM = Missing Value Source: Averaged Metar Reports

Daily Weather History Graph

Daily Weather History Graph

Search for Another Location

Airport or City:

Trip Planner

Search our weather history database for the weather conditions in past years. The results will help you decide how hot, cold, wet, or windy it might be!

Date:

Astronomy

Nov. 16, 2011 Rise Set
Actual Time 5:18 AM SAST 7:12 PM SAST
Civil Twilight 4:50 AM SAST 7:40 PM SAST
Nautical Twilight 4:17 AM SAST 8:13 PM SAST
Astronomical Twilight 3:41 AM SAST 8:49 PM SAST
Moon 11:49 PM SAST (11/16) 9:46 AM SAST (11/16)
Length of Visible Light 14h 49m
Length of Day
13h 54m
Waning Gibbous, 73% of the Moon is Illuminated
Nov 16
Waning Gibbous
Nov 18
Last Quarter
Nov 25
New
Dec 2
First Quarter
Dec 10
Full

Hourly Weather History & Observations

Time (SAST) Temp. Dew Point Humidity Pressure Visibility Wind Dir Wind Speed Gust Speed Precip Events Conditions
12:00 AM 55.4 °F 53.6 °F 94% 30.01 in - NNW 3.5 mph - N/A   Clear
1:00 AM 53.6 °F 51.8 °F 94% 30.01 in - NW 3.5 mph - N/A   Clear
2:00 AM 53 °F 51 °F 92% 30.00 in 12 mi 1.2 mph - -  
2:00 AM 53.6 °F 51.8 °F 94% 29.98 in - Variable 1.2 mph - N/A   Clear
3:00 AM 53.6 °F 51.8 °F 94% 29.98 in - NNW 2.3 mph - N/A   Clear
4:00 AM 51.8 °F 48.2 °F 88% 29.98 in - Variable 2.3 mph - N/A   Clear
5:00 AM 51 °F 50 °F 94% 29.99 in 12 mi North 2.3 mph - -   Scattered Clouds
5:00 AM 50.0 °F 50.0 °F 100% 29.98 in 6.2 mi North 2.3 mph - N/A   Partly Cloudy
6:00 AM 50.0 °F 48.2 °F 94% 30.01 in 6.2 mi West 5.8 mph - N/A   Partly Cloudy
6:18 AM 53.6 °F 51.8 °F 94% 30.01 in 6.2 mi WNW 3.5 mph - N/A   Scattered Clouds
7:00 AM 57.2 °F 53.6 °F 88% 30.01 in 6.2 mi NW 3.5 mph - N/A   Scattered Clouds
7:40 AM 60.8 °F 55.4 °F 82% 30.01 in 6.2 mi WNW 4.6 mph - N/A   Scattered Clouds
8:00 AM 63 °F 56 °F 72% 30.03 in 12 mi West 3.5 mph - -   Partly Cloudy
8:00 AM 62.6 °F 57.2 °F 82% 30.01 in 6.2 mi WNW 3.5 mph - N/A   Scattered Clouds
9:00 AM 64.4 °F 53.6 °F 68% 30.01 in 6.2 mi Variable 2.3 mph - N/A   Scattered Clouds
10:00 AM 64.4 °F 55.4 °F 73% 30.01 in 6.2 mi SSW 6.9 mph - N/A   Scattered Clouds
11:00 AM 68 °F 56 °F 55% 30.02 in 12 mi South 10.4 mph - -   Mostly Cloudy
11:00 AM 68.0 °F 55.4 °F 64% 30.01 in 6.2 mi South 10.4 mph - N/A   Scattered Clouds
12:00 PM 68.0 °F 55.4 °F 64% 30.01 in 6.2 mi South 11.5 mph - N/A   Scattered Clouds
1:00 PM 66.2 °F 55.4 °F 68% 30.01 in 6.2 mi South 12.7 mph - N/A   Mostly Cloudy
2:00 PM 65 °F 57 °F 67% 30.01 in 12 mi South 13.8 mph - -   Mostly Cloudy
2:00 PM 66.2 °F 57.2 °F 73% 30.01 in 6.2 mi South 12.7 mph - N/A   Mostly Cloudy
3:00 PM 66.2 °F 57.2 °F 73% 30.01 in 6.2 mi SSE 10.4 mph - N/A   Mostly Cloudy
4:00 PM 66.2 °F 55.4 °F 68% 30.01 in 6.2 mi South 10.4 mph - N/A   Mostly Cloudy
5:00 PM 66 °F 56 °F 62% 30.01 in 12 mi SE 9.2 mph - -   Mostly Cloudy
5:00 PM 66.2 °F 55.4 °F 68% 30.01 in 6.2 mi SE 9.2 mph - N/A   Mostly Cloudy
6:00 PM 64.4 °F 55.4 °F 73% 30.01 in 6.2 mi SE 9.2 mph - N/A   Scattered Clouds
7:00 PM 64.4 °F 55.4 °F 73% 30.04 in 6.2 mi SE 6.9 mph - N/A   Mostly Cloudy
8:00 PM 63 °F 56 °F 70% 30.06 in 19 mi SE 4.6 mph - -   Mostly Cloudy
8:00 PM 62.6 °F 55.4 °F 77% 30.06 in 6.2 mi SE 4.6 mph - N/A   Mostly Cloudy
9:00 PM 62.6 °F 55.4 °F 77% 30.06 in 6.2 mi SE 4.6 mph - N/A   Mostly Cloudy
10:00 PM 62.6 °F 55.4 °F 77% 30.09 in 6.2 mi SE 4.6 mph - N/A   Mostly Cloudy
11:00 PM 60.8 °F 55.4 °F 82% 30.09 in 6.2 mi ENE 3.5 mph - N/A   Mostly Cloudy